This is the latest recevied weather packets stored in our database for station/object KD4EG. If no packets are shown the sender has not sent any weather packets the latest 10 day(s).
| Time | Temp. | Humidity | Pressure | Rain* | Wind** | Luminosity | Snow |
|---|---|---|---|---|---|---|---|
| 1777657681 | 18.89° C | 46% | 1015.2 hPa | 0 mm | - | 719 W/m² | - |
| 1777657379 | 18.33° C | 44% | 1015.2 hPa | 0 mm | - | 700 W/m² | - |
| 1777657076 | 18.33° C | 44% | 1015.5 hPa | 0 mm | - | 687 W/m² | - |
| 1777656774 | 18.33° C | 44% | 1015.6 hPa | 0 mm | - | 665 W/m² | - |
| 1777656469 | 17.78° C | 45% | 1015.6 hPa | 0 mm | - | 620 W/m² | - |
| 1777656165 | 17.78° C | 46% | 1015.5 hPa | 0 mm | - | 624 W/m² | - |
| 1777655860 | 17.78° C | 48% | 1015.7 hPa | 0 mm | - | 662 W/m² | - |
| 1777655558 | 16.67° C | 48% | 1015.6 hPa | 0 mm | - | 688 W/m² | - |
| 1777655254 | 17.22° C | 47% | 1016 hPa | 0 mm | - | 690 W/m² | - |
| 1777654951 | 17.22° C | 44% | 1016.3 hPa | 0 mm | - | 701 W/m² | - |
| 1777654649 | 17.78° C | 44% | 1016 hPa | 0 mm | - | 715 W/m² | - |
| 1777654346 | 17.22° C | 46% | 1016.2 hPa | 0 mm | - | 691 W/m² | - |
| 1777654044 | 16.67° C | 49% | 1016.3 hPa | 0 mm | - | 651 W/m² | - |
| 1777653741 | 16.67° C | 48% | 1016.5 hPa | 0 mm | - | 645 W/m² | - |
| 1777653437 | 16.11° C | 49% | 1016.5 hPa | 0 mm | - | 648 W/m² | - |
| 1777653134 | 16.11° C | 51% | 1016.7 hPa | 0 mm | - | 642 W/m² | - |
| 1777652830 | 16.67° C | 49% | 1016.8 hPa | 0 mm | - | 649 W/m² | - |
| 1777652526 | 16.11° C | 50% | 1016.8 hPa | 0 mm | - | 674 W/m² | - |
| 1777652224 | 15.56° C | 50% | 1016.8 hPa | 0 mm | - | 678 W/m² | - |
| 1777651921 | 15.56° C | 51% | 1016.9 hPa | 0 mm | - | 684 W/m² | - |
| 1777651617 | 15.56° C | 52% | 1016.9 hPa | 0 mm | - | 668 W/m² | - |
| 1777651315 | 15.56° C | 53% | 1017 hPa | 0 mm | - | 645 W/m² | - |
| 1777651011 | 15.56° C | 54% | 1017.2 hPa | 0 mm | - | 648 W/m² | - |
| 1777650709 | 15.56° C | 53% | 1017.2 hPa | 0 mm | - | 699 W/m² | - |
| 1777650406 | 15° C | 55% | 1017.2 hPa | 0 mm | - | 702 W/m² | - |
* Rain latest hour (hover to see other rain measurements)
** Current wind speed in m/s (hover to see current wind gust speed)